Location: Huntsville
(41.2590°N, 111.7678°W)
Time: 19:18:07
(UTC+00:00)

Explorer 7 - Pass Details

Date: 22 June 2021
Orbit: 484 x 676 km, 50.3° (Epoch: 30 July)

Event Time Altitude Azimuth Distance (km) Brightness Sun altitude
Rises 08:05:41 0° 302° (WNW) 2,996 10.9 -24.8°
Reaches altitude 10° 08:08:12 10° 310° (NW) 2,062 10.1 -24.7°
Maximum altitude 08:12:42 41° 20° (NNE) 926 8.4 -24.5°
Drops below altitude 10° 08:16:58 10° 91° (E) 1,955 9.7 -24.4°
Sets 08:19:17 0° 99° (E) 2,822 10.5 -24.3°
